This is the latest recevied weather packets stored in our database for station/object SQ9MHX-13. If no packets are shown the sender has not sent any weather packets the latest 10 day(s).
| Time | Temp. | Humidity | Pressure | Rain* | Wind** | Luminosity | Snow |
|---|---|---|---|---|---|---|---|
| 1777421518 | 0° C | 69% | 996.1 hPa | - | 0 m/s | - | - |
| 1777421220 | 0° C | 69% | 996.1 hPa | - | 0 m/s | - | - |
| 1777420922 | 0° C | 67% | 996.3 hPa | - | 0 m/s | - | - |
| 1777420624 | 0° C | 69% | 995.9 hPa | - | 0 m/s | - | - |
| 1777420326 | 0° C | 66% | 995.6 hPa | - | 0 m/s | - | - |
| 1777420029 | 0° C | 67% | 995.7 hPa | - | 0 m/s | - | - |
| 1777419731 | 0° C | 68% | 995.9 hPa | - | 0 m/s | - | - |
| 1777419433 | 0° C | 71% | 996 hPa | - | 0 m/s | - | - |
| 1777419135 | 0° C | 69% | 995.5 hPa | - | 0 m/s | - | - |
| 1777418837 | 0° C | 66% | 995.2 hPa | - | 0 m/s | - | - |
| 1777418540 | 0° C | 68% | 994.8 hPa | - | 0 m/s | - | - |
| 1777418242 | 1.11° C | 63% | 995.3 hPa | - | 0 m/s | - | - |
| 1777417944 | 1.11° C | 62% | 994.9 hPa | - | 0 m/s | - | - |
| 1777417646 | 0° C | 62% | 995 hPa | - | 0 m/s | - | - |
| 1777417348 | 0° C | 66% | 995.7 hPa | - | 0 m/s | - | - |
| 1777417101 | 0° C | 65% | 995.2 hPa | - | 0 m/s | - | - |
| 1777417050 | 0° C | 65% | 995.2 hPa | - | 0 m/s | - | - |
| 1777416753 | 0° C | 64% | 995.1 hPa | - | 0 m/s | - | - |
| 1777416455 | 0° C | 67% | 994.2 hPa | - | 0 m/s | - | - |
| 1777416157 | 1.11° C | 60% | 993.2 hPa | - | 0 m/s | - | - |
| 1777415859 | 2.22° C | 58% | 993.3 hPa | - | 0 m/s | - | - |
| 1777415561 | 1.11° C | 57% | 993.7 hPa | - | 0 m/s | - | - |
| 1777415263 | 1.11° C | 58% | 993.8 hPa | - | 0 m/s | - | - |
| 1777414965 | 1.11° C | 58% | 993.6 hPa | - | 0 m/s | - | - |
| 1777414667 | 2.22° C | 58% | 993.1 hPa | - | 0 m/s | - | - |
* Rain since midnight (hover to see other rain measurements)
** Current wind speed in m/s (hover to see current wind gust speed)